KAL211 LSZH-RKSI

Flight info

Callsign KAL211
Flight time N/A
Altitude 33000
Route DEGES Z2 TUNUM Z204 GEDSO DCT VEKEN/N0490F370 DCT DEGUM DCT MAGAM DCT SMI DCT ETIDA DCT UDROS UM859 KARDE UN644 ROLIN/N0483F390 DCT TAGAR DCT BT DCT BARAD M747 SUBUT T916 BALUN/K0904F390 T916 PIGAL M610 RULAD/K0883S1130 A343 NLT/K0895S1190 A343 POSOT B215 FKG W188 LIKMI W270 DKO W69 HUR B339 LADIX/K0861S1130 W34 VAPGU W100 ORAVA W201 UNSEK A326 DOBGA/K0854S1070 A326 SANKO/K0848S1010 A326 DONVO G597 AGAVO/N0458F330 Y644 REBIT
Aircraft B77W/H-SDE2FGHIJ1J3J5M1P2RWXYZ/LB1D1

Departure

Time 2026-04-30 17:52
Airport Zürich Airport (LSZH)

Arrival

Time N/A
Airport Incheon International Airport (RKSI)
Time Latitude Longitude Altitude Speed Heading
2026-04-30 17:39 47.46184 8.55493 1403 ft 0 kts 186°
2026-04-30 17:44 47.46236 8.55501 1403 ft 2 kts 221°
2026-04-30 17:44 47.46250 8.55583 1411 ft 0 kts 276°
2026-04-30 17:47 47.46255 8.55503 1406 ft 15 kts 276°
2026-04-30 17:48 47.46303 8.54845 1396 ft 16 kts 276°
2026-04-30 17:48 47.46560 8.54569 1399 ft 16 kts 336°
2026-04-30 17:49 47.47171 8.54164 1400 ft 25 kts 335°
2026-04-30 17:50 47.47589 8.53685 1408 ft 17 kts 249°
2026-04-30 17:51 47.47344 8.53749 1404 ft 65 kts 155°
2026-04-30 17:52 47.44113 8.56007 3177 ft 200 kts 140°
2026-04-30 17:53 47.44729 8.65774 5973 ft 244 kts 69°
2026-04-30 17:54 47.44053 8.75280 8383 ft 263 kts 98°
2026-04-30 17:55 47.43207 8.86463 10975 ft 293 kts 94°
2026-04-30 17:56 47.42421 9.00214 12788 ft 356 kts 93°
2026-04-30 17:57 47.41802 9.11363 14993 ft 376 kts 93°
2026-04-30 17:58 47.41767 9.23215 17055 ft 392 kts 80°
2026-04-30 17:59 47.44153 9.39105 19936 ft 403 kts 75°
2026-04-30 18:00 47.46613 9.55547 22590 ft 416 kts 77°
2026-04-30 18:00 47.46903 9.68592 24323 ft 432 kts 91°
2026-04-30 18:01 47.46372 9.77479 25392 ft 436 kts 91°
2026-04-30 18:02 47.45587 9.90892 26984 ft 441 kts 91°
2026-04-30 18:02 47.44806 10.04524 28358 ft 447 kts 91°
2026-04-30 18:03 47.44180 10.15266 29416 ft 451 kts 91°